Terug naar catalogus

SAUDICOMSAT 1

ActiefCommunicatieSSO
NORAD 28369·PAYLOAD·🇸🇦 Saudi Arabia

Gelanceerd Jun 29, 2004 vanaf Baikonur Cosmodrome

Loading…

Volgende Passages (komende 24 uur)

TLE

VersSource: Space-Track

Epoch: Sep 13, 2026, 13:26 UTC

1 28369U 04025D   26256.55986449  .00000224  00000-0  62347-4 0  9994
2 28369  98.5791 269.0880 0033251 112.0340 248.4394 14.55525289176988

Volg SAUDICOMSAT 1 in realtime met AllMySat

Download on the App Store